Location: Campillo
(40.8621°N, 4.2488°W)
Time: 04:52:18
(UTC+00:00)

Cosmos 158 Rocket - Pass Details

Date: 28 September 2021
Orbit: 699 x 792 km, 74.0° (Epoch: 19 October)

Event Time Altitude Azimuth Distance (km) Brightness Sun altitude
Rises 20:49:08 0° 323° (NW) 3,134 8.1 -31.1°
Reaches altitude 10° 20:52:10 10° 305° (NW) 2,194 7.2 -31.6°
Maximum altitude 20:55:24 18° 264° (W) 1,711 6.3 -32.2°
Enters shadow 20:57:43 13° 231° (SW) 1,958 6.3 -32.6°
